Location: Rounton
(54.4000°N, 1.3500°W)
Time: 13:43:34
(UTC+00:00)

Transit 2A - Pass Details

Date: 02 December 2021
Orbit: 591 x 967 km, 66.7° (Epoch: 17 January)

Event Time Altitude Azimuth Distance (km) Brightness Sun altitude
Rises 08:25:37 0° 317° (NW) 3,640 8.8 1.5°
Reaches altitude 10° 08:28:10 10° 318° (NW) 2,708 8.2 1.7°
Maximum altitude 08:34:37 87° 49° (NE) 974 6.7 2.4°
Drops below altitude 10° 08:40:55 10° 139° (SE) 2,650 11.5 3.0°
Sets 08:43:23 0° 139° (SE) 3,557 12.7 3.3°
